Estación de Tranapuente INIA

Ultimos registro cada 15 minutos 21
Estación Fecha / Hora Temperatura Humedad Lluvia Velocidad Dirección Radiación Presion
21 Tranapuente INIA 04-09-2026 05:00 6,6 93,2 0 0 0 0 1020
20 Tranapuente INIA 04-09-2026 04:45 6,5 94,8 0 0 0 0 1020
19 Tranapuente INIA 04-09-2026 04:30 6,6 94,5 0 0 0 0 1020
18 Tranapuente INIA 04-09-2026 04:15 6,8 93,4 0 0 0 0 1020
17 Tranapuente INIA 04-09-2026 04:00 7 92,2 0 0 0 0 1020
16 Tranapuente INIA 04-09-2026 03:45 7,2 91,2 0 0 0 0 1020
15 Tranapuente INIA 04-09-2026 03:30 7,1 88,2 0 0,3 225 0 1020
14 Tranapuente INIA 04-09-2026 03:15 6,9 91,8 0 0 0 0 1020
13 Tranapuente INIA 04-09-2026 03:00 6,8 91,1 0 0 0 0 1020
12 Tranapuente INIA 04-09-2026 02:45 6,8 92,5 0 0 0 0 1020
11 Tranapuente INIA 04-09-2026 02:30 6,8 92,7 0 0 0 0 1020
10 Tranapuente INIA 04-09-2026 02:15 6,9 92,1 0 0 0 0 1020
9 Tranapuente INIA 04-09-2026 02:00 6,9 91,9 0 0 0 0 1021
8 Tranapuente INIA 04-09-2026 01:45 6,9 92,7 0 0 0 0 1021
7 Tranapuente INIA 04-09-2026 01:30 6,9 93,6 0 0 0 0 1020
6 Tranapuente INIA 04-09-2026 01:15 6,9 92,9 0 0 0 0 1021
5 Tranapuente INIA 04-09-2026 01:00 6,9 92,2 0 0 0 0 1021
4 Tranapuente INIA 04-09-2026 00:45 6,9 91,8 0 0 0 0 1021
3 Tranapuente INIA 04-09-2026 00:30 6,9 90,9 0 0 0 0 1021
2 Tranapuente INIA 04-09-2026 00:15 6,9 93,4 0 0 0 0 1021
1 Tranapuente INIA 04-09-2026 00:00 7 93,1 0 0 0 0 1021